FALCON 9 DEB (44974 NORAD) Tracking and Keplerian Element Data

This shows tracking and keplerian element data for the satellite.

Feedback or suggestion? Click here.




ElementValue
Catalog44974
NameFALCON 9 DEB
Epoch Orbit732
Epoch Day52.76749337
Epoch Year2020
RAAN161.1957
Inclination52.9925
Eccentricity0.0007031
Argument of Perigee45.3101
Mean Anonmoly314.8504
Mean Motion16.10299219
Decay Rate0.00340038
L11 44974U 20001BN 20052.76749337 .00340038 68434-4 34546-3 0 9998
L22 44974 52.9925 161.1957 0007031 45.3101 314.8504 16.10299219 7324

Live tracking and technical data element details for FALCON 9 DEB (NORAD 44974). FALCON 9 DEB can be tracked NOW for your location showing map with azimuth and elevation plus other details from your city location.

Track the satellite on the map from your city or location and see movement details for azimuth, elevation, latitude, longitude, range, height, and movement on the map or in text.







IsCatalogInMostPopularTable: catalog: 44974, numindb: 11
Update: records affected: 1



GetName: 44974 FALCON 9 DEB

Hit Count: updated at: Mon, 24 Feb 2020 19:15:52 GMT